Regional Weather Roundup
Issued by NWS

Home | Current Version | Previous Version | Graphics & Text | Print | Product List | Glossary On
Versions: 1 2 3 4 5 6 7 8 9 10 11 12 13 14 15 16 17 18 19 20 21 22 23 24 25 26 27 28 29 30 31 32 33 34 35 36 37 38 39 40 41 42 43 44 45 46 47 48 49 50
000
ASUS43 KDMX 281701
RWRIA

WEATHER ROUNDUP FOR IOWA
NATIONAL WEATHER SERVICE DES MOINES IA
1200 PM CDT FRI JUL 28 2017

NOTE: "FAIR" INDICATES FEW OR NO CLOUDS BELOW 12,000 FEET WITH NO
SIGNIFICANT WEATHER AND/OR OBSTRUCTIONS TO VISIBILITY.

* - THESE STATIONS ARE NOT NWS STATIONS...THUS NOT UNDER NWS
QUALITY CONTROL.  THEY ALSO DO NOT REPORT WEATHER SUCH
AS PRECIPITATION OR FOG.

IAZ001>003-012>014-020>022-031>034-043>046-281800-
   NORTHWEST IOWA

CITY           SKY/WX    TMP DP  RH WIND       PRES   REMARKS
CARROLL *      CLOUDY    77  66  69 E5        30.08S
CHEROKEE *     MOSUNNY   81  60  48 E5        30.09S HX  81
DENISON *      MOSUNNY   77  66  69 NE6       30.09S
ORANGE CITY *  CLOUDY    79  63  57 E5        30.10S HX  80
SHELDON *      PTSUNNY   79  63  57 VRB6      30.09S HX  80
SIOUX CITY     CLOUDY    78  65  63 E3        30.08S HX  80
SPENCER        MOSUNNY   82  59  45 NE9       30.10S HX  82
STORM LAKE *     N/A     77  64  65 E6        30.10S
$$

IAZ055>058-069>071-079>083-090>094-281800-
   SOUTHWEST IOWA

CITY           SKY/WX    TMP DP  RH WIND       PRES   REMARKS
ATLANTIC *     CLOUDY    79  64  61 E7        30.07S HX  81
AUDUBON *      SUNNY     81  66  61 CALM      30.09S HX  83
CLARINDA *     PTSUNNY   81  66  61 E6        30.07F HX  83
COUNCIL BLFS * PTSUNNY   79  64  61 E7        30.07S HX  81
CRESTON *      MOSUNNY   81  63  54 VRB8G14   30.08S HX  82
HARLAN  *      MOSUNNY   81  66  61 E8        30.11S HX  83
LAMONI           N/A     81  64  56 NE6       30.05F HX  82
RED OAK *      PTSUNNY   81  66  61 E8        30.07R HX  83
SHENANDOAH *   MOSUNNY   81  66  61 VRB7G14   30.06S HX  83
$$

IAZ047>049-059>061-072>074-084-281800-
   CENTRAL IOWA

CITY           SKY/WX    TMP DP  RH WIND       PRES   REMARKS
AMES           MOSUNNY   80  66  62 CALM      30.06S HX  82
ANKENY *       CLOUDY    79  63  57 VRB5      30.07S HX  80
BOONE *        MOSUNNY   81  64  57 VRB7      30.06S HX  82
CHARITON *     PTSUNNY   81  59  47 NE7       30.05S HX  81
DES MOINES     PTSUNNY   81  59  47 VRB5      30.05S HX  81
GRINNELL*      PTSUNNY   78  62  57 CALM      30.07F
KNOXVILLE *    PTSUNNY   79  59  50 E6        30.04S HX  80
MARSHALLTOWN   MOSUNNY   79  63  57 E7        30.06S HX  80
NEWTON *       PTSUNNY   79  61  53 E8        30.06F HX  80
PELLA *        MOSUNNY   82  59  45 NE3       30.06S HX  82
PERRY *          N/A     79  66  64 CALM      30.07S HX  81
$$

IAZ004>006-015-016-023>025-035-036-281800-
   NORTH CENTRAL IOWA

CITY           SKY/WX    TMP DP  RH WIND       PRES   REMARKS
ALGONA *       SUNNY     81  61  50 VRB5G13   30.09S HX  81
ESTHERVILLE    MOSUNNY   78  62  57 E5        30.09S HX  80
FORT DODGE *   CLOUDY    81  63  54 NE5       30.09S HX  82
MASON CITY     MOSUNNY   79  66  64 NE7       30.09F HX  81
FOREST CITY *    N/A     81  63  54 NE5       30.08S HX  82
WEBSTER CITY * PTSUNNY   82  61  47 N7        30.05S HX  83
IOWA FALLS *     N/A     80  65  61 E5        30.08S HX  82
$$

IAZ007>011-017>019-026>030-037>042-050>054-066-281800-
   NORTHEAST IOWA

CITY           SKY/WX    TMP DP  RH WIND       PRES   REMARKS
CHARLES CITY * MOSUNNY   77  64  65 N3        30.09S
DECORAH *      SUNNY     75  63  64 VRB3      30.08S
DUBUQUE        SUNNY     76  63  64 NE12      30.06S
MONTICELLO *   SUNNY     77  63  61 VRB6      30.05F
OELWEIN *      SUNNY     75  63  64 CALM      30.08S
WATERLOO       SUNNY     79  62  56 VRB5      30.06S HX  80
$$

IAZ064-065-067-068-078-281800-
   EAST CENTRAL IOWA

CITY           SKY/WX    TMP DP  RH WIND       PRES   REMARKS
DAVENPORT      SUNNY     77  61  57 NE16      30.05S
IOWA CITY      MOSUNNY   80  61  52 NE13      30.06S HX  81
MUSCATINE *    MOSUNNY   79  59  50 NE14      30.04R HX  80
QUAD CITIES    SUNNY     79  60  52 NE10      30.02S HX  80
$$

IAZ062-063-075>077-085>089-095>099-281800-
   SOUTHEAST IOWA

CITY           SKY/WX    TMP DP  RH WIND       PRES   REMARKS
BURLINGTON     SUNNY     78  63  59 N14       30.01F HX  80
FAIRFIELD *    MOSUNNY   81  52  36 NE10G17   30.03S HX  80
FORT MADISON * MOSUNNY   77  64  65 NE9       30.02S
KEOKUK *       MOSUNNY   79  63  57 NE8G15    30.00S HX  80
OSKALOOSA *      N/A     81  58  45 E7        30.05S HX  81
OTTUMWA        MOSUNNY   82  54  37 E12       30.03F HX  81
WASHINGTON *   MOSUNNY   79  63  57 NE10      30.05S HX  80
$$

ABBREVIATIONS USED IN REMARKS
   TC - TEMPERATURES IN CELSIUS
  WCI - WIND CHILL INDEX
   HX - HEAT INDEX
  VSB - VISIBILITY
$$





USA.gov is the U.S. government's official web portal to all federal, state and local government web resources and services.